TimeAKDT,TemperatureF,Dew PointF,Humidity,Sea Level PressureIn,VisibilityMPH,Wind Direction,Wind SpeedMPH,Gust SpeedMPH,PrecipitationIn,Events,Conditions,WindDirDegrees,DateUTC
12:53 AM,51.1,48.9,92,30.09,10.0,WNW,12.7,-,N/A,,Overcast,300,2012-10-09 08:53:00
1:48 AM,51.8,48.2,88,30.09,10.0,NW,12.7,-,N/A,,Partly Cloudy,310,2012-10-09 09:48:00
1:53 AM,51.1,48.0,89,30.09,10.0,NW,10.4,-,N/A,,Partly Cloudy,310,2012-10-09 09:53:00
2:53 AM,50.0,48.9,96,30.09,10.0,WNW,11.5,-,N/A,,Partly Cloudy,300,2012-10-09 10:53:00
3:48 AM,48.2,48.2,100,30.09,10.0,NNW,5.8,-,N/A,,Mostly Cloudy,330,2012-10-09 11:48:00
3:53 AM,48.9,48.0,97,30.09,10.0,NNW,5.8,-,N/A,,Mostly Cloudy,330,2012-10-09 11:53:00
4:24 AM,48.2,46.4,93,30.09,10.0,NW,4.6,-,N/A,,Overcast,310,2012-10-09 12:24:00
4:53 AM,48.9,48.0,97,30.09,10.0,NNW,4.6,-,N/A,,Overcast,340,2012-10-09 12:53:00
5:53 AM,48.0,46.9,96,30.08,10.0,North,3.5,-,N/A,,Mostly Cloudy,350,2012-10-09 13:53:00
6:18 AM,46.4,46.4,100,30.08,10.0,NNW,3.5,-,N/A,,Scattered Clouds,340,2012-10-09 14:18:00
6:53 AM,45.0,45.0,100,30.08,10.0,North,3.5,-,N/A,,Partly Cloudy,360,2012-10-09 14:53:00
7:45 AM,48.2,46.4,93,30.07,10.0,NW,3.5,-,N/A,,Scattered Clouds,310,2012-10-09 15:45:00
7:53 AM,46.9,46.0,97,30.07,10.0,WNW,4.6,-,N/A,,Scattered Clouds,300,2012-10-09 15:53:00
8:53 AM,46.9,45.0,93,30.08,10.0,Calm,Calm,-,N/A,,Partly Cloudy,0,2012-10-09 16:53:00
9:53 AM,48.9,46.0,90,30.07,10.0,Calm,Calm,-,N/A,,Partly Cloudy,0,2012-10-09 17:53:00
10:53 AM,48.9,46.0,90,30.06,10.0,Calm,Calm,-,N/A,,Partly Cloudy,0,2012-10-09 18:53:00
11:53 AM,52.0,46.9,83,30.07,10.0,Calm,Calm,-,N/A,,Partly Cloudy,0,2012-10-09 19:53:00
12:53 PM,52.0,48.0,86,30.07,10.0,SW,4.6,-,N/A,,Scattered Clouds,220,2012-10-09 20:53:00
1:38 PM,51.8,48.2,88,30.07,10.0,SW,9.2,-,N/A,,Mostly Cloudy,220,2012-10-09 21:38:00
1:53 PM,53.1,48.0,83,30.07,10.0,WSW,5.8,-,N/A,,Mostly Cloudy,240,2012-10-09 21:53:00
2:53 PM,54.0,48.0,80,30.07,10.0,SSW,4.6,-,N/A,,Mostly Cloudy,200,2012-10-09 22:53:00
3:53 PM,54.0,48.0,80,30.06,10.0,West,4.6,-,N/A,,Mostly Cloudy,270,2012-10-09 23:53:00
4:53 PM,53.1,48.0,83,30.06,10.0,WNW,8.1,-,N/A,,Mostly Cloudy,300,2012-10-10 00:53:00
5:53 PM,51.1,48.0,89,30.06,10.0,WNW,10.4,-,N/A,,Mostly Cloudy,300,2012-10-10 01:53:00
6:53 PM,50.0,48.0,93,30.06,10.0,NW,9.2,-,N/A,,Mostly Cloudy,320,2012-10-10 02:53:00
7:53 PM,50.0,48.0,93,30.06,10.0,NW,8.1,-,N/A,,Overcast,310,2012-10-10 03:53:00
8:53 PM,50.0,48.0,93,30.06,10.0,NW,8.1,-,N/A,,Overcast,310,2012-10-10 04:53:00
9:32 PM,50.0,48.2,94,30.06,10.0,NW,5.8,-,N/A,,Overcast,320,2012-10-10 05:32:00
9:53 PM,50.0,48.0,93,30.06,10.0,NW,8.1,-,N/A,,Overcast,310,2012-10-10 05:53:00
10:53 PM,48.9,46.9,93,30.06,10.0,North,3.5,-,N/A,,Overcast,350,2012-10-10 06:53:00
11:12 PM,50.0,48.2,94,30.06,10.0,Calm,Calm,-,N/A,,Overcast,0,2012-10-10 07:12:00
11:30 PM,50.0,48.2,94,30.07,10.0,Calm,Calm,-,N/A,,Overcast,0,2012-10-10 07:30:00
11:53 PM,48.9,48.9,100,30.07,10.0,ESE,3.5,-,N/A,,Overcast,120,2012-10-10 07:53:00